Clearfield, PA

10:29 AM EDT on May 24, 2018 (GMT -0400)
Clearfield-Lawrence

Weather History for KFIG - January, 2014

Change the Weather History Date:

Friday, January 24, 2014

  Actual Average (KDUJ) Record (KDUJ)
Temperature  
Mean Temperature 6 °F -  
Max Temperature 12 °F 32 °F 57 °F (1967)
Min Temperature 1 °F 17 °F -20 °F (1963)
Degree Days  
Heating Degree Days 58    
Moisture  
Dew Point -3 °F    
Average Humidity 69    
Maximum Humidity 80    
Minimum Humidity 44    
Precipitation  
Precipitation 0.00 in - - ()
Sea Level Pressure  
Sea Level Pressure 30.28 in    
Wind  
Wind Speed 10 mph (SW)    
Max Wind Speed 18 mph    
Max Gust Speed 25 mph    
Visibility 8 miles    
Events Snow    
Averages and records for this station are not official NWS values.
T = Trace of Precipitation, MM = Missing Value Source: NWS Daily Summary

Daily Weather History Graph

Daily Weather History Graph

Search for Another Location

Airport or City:

Astronomy

Jan. 24, 2014 Rise Set
Actual Time 7:31 AM EST 5:20 PM EST
Civil Twilight 7:01 AM EST 5:50 PM EST
Nautical Twilight 6:28 AM EST 6:23 PM EST
Astronomical Twilight 5:55 AM EST 6:56 PM EST
Moon 12:55 AM EST 11:38 AM EST
Length of Visible Light 10h 48m
Length of Day
9h 49m
Last Quarter, 45% of the Moon is Illuminated
Jan 24
Last Quarter
Jan 30
New
Feb 6
First Quarter
Feb 14
Full
Feb 22
Last Quarter

Hourly Weather History & Observations

Time (EST) Temp. Windchill Dew Point Humidity Pressure Visibility Wind Dir Wind Speed Gust Speed Precip Events Conditions
12:09 AM 5.0 °F -9.1 °F -0.0 °F 80% 30.29 in 2.5 mi West 9.2 mph 17.3 mph 0.00 in Snow Light Snow
12:24 AM 5.0 °F -10.8 °F -0.9 °F 76% 30.29 in 3.0 mi West 11.5 mph - 0.00 in Snow Light Snow
12:54 AM 3.9 °F -10.4 °F -2.0 °F 76% 30.39 in 4.0 mi WSW 9.2 mph - 0.00 in Snow Light Snow
1:54 AM 3.0 °F -10.5 °F -2.0 °F 80% 30.40 in 5.0 mi WSW 8.1 mph - 0.00 in Snow Light Snow
2:19 AM 3.0 °F -11.5 °F -2.0 °F 80% 30.30 in 5.0 mi WSW 9.2 mph - 0.00 in Snow Light Snow
2:40 AM 1.9 °F -11.8 °F -2.9 °F 80% 30.31 in 8.0 mi West 8.1 mph - 0.00 in   Overcast
2:54 AM 1.9 °F -13.8 °F -2.9 °F 80% 30.42 in 6.0 mi West 10.4 mph - 0.00 in   Overcast
3:10 AM 1.9 °F -10.6 °F -2.9 °F 80% 30.31 in 7.0 mi West 6.9 mph 16.1 mph 0.00 in   Overcast
3:54 AM 1.0 °F -12.9 °F -4.0 °F 79% 30.42 in 10.0 mi WSW 8.1 mph - 0.00 in   Overcast
4:09 AM 1.0 °F -11.7 °F -4.0 °F 79% 30.32 in 10.0 mi WSW 6.9 mph - 0.00 in   Overcast
4:54 AM 1.0 °F -11.7 °F -4.0 °F 79% 30.44 in 7.0 mi SW 6.9 mph - 0.00 in   Overcast
5:27 AM 1.0 °F -14.0 °F -5.1 °F 75% 30.33 in 9.0 mi SW 9.2 mph - N/A   Overcast
5:54 AM 1.0 °F -12.9 °F -4.0 °F 79% 30.45 in 5.0 mi SW 8.1 mph - 0.00 in Snow Light Snow
6:49 AM 1.4 °F -13.5 °F -4.0 °F 78% 30.33 in 5.0 mi WSW 9.2 mph - 0.00 in   Haze
6:54 AM 1.0 °F -14.0 °F -4.0 °F 79% 30.45 in 6.0 mi WSW 9.2 mph - 0.00 in   Haze
7:07 AM 1.0 °F -15.8 °F -4.0 °F 79% 30.34 in 6.0 mi WSW 11.5 mph - N/A   Haze
7:54 AM 1.0 °F -11.7 °F -4.0 °F 79% 30.45 in 4.0 mi WSW 6.9 mph - 0.00 in   Haze
8:05 AM 1.0 °F -14.9 °F -4.0 °F 79% 30.33 in 3.0 mi WSW 10.4 mph - 0.00 in Snow Light Snow
8:47 AM 1.9 °F -13.8 °F -4.0 °F 76% 30.33 in 7.0 mi SW 10.4 mph - 0.00 in   Overcast
8:54 AM 1.9 °F -12.9 °F -4.0 °F 76% 30.44 in 6.0 mi SW 9.2 mph - 0.00 in Snow Light Snow
9:54 AM 3.0 °F -13.3 °F -2.9 °F 76% 30.43 in 4.0 mi SSW 11.5 mph - 0.00 in   Haze
10:54 AM 7.0 °F -9.1 °F -2.0 °F 67% 30.39 in 10.0 mi SSW 12.7 mph - 0.00 in   Overcast
11:54 AM 7.0 °F -9.1 °F -2.0 °F 67% 30.36 in 10.0 mi WSW 12.7 mph 24.2 mph N/A   Overcast
12:39 PM 8.1 °F -9.0 °F -2.0 °F 64% 30.21 in 10.0 mi SW 15.0 mph - N/A   Mostly Cloudy
12:54 PM 9.0 °F -5.9 °F -2.0 °F 61% 30.31 in 10.0 mi SW 11.5 mph 21.9 mph N/A   Scattered Clouds
1:54 PM 9.0 °F -7.9 °F -2.0 °F 61% 30.27 in 10.0 mi SW 15.0 mph 24.2 mph N/A   Clear
2:54 PM 10.0 °F -5.2 °F -2.0 °F 58% 30.23 in 10.0 mi SSW 12.7 mph 23.0 mph N/A   Partly Cloudy
3:54 PM 10.0 °F -5.9 °F -2.9 °F 56% 30.21 in 10.0 mi SW 13.8 mph 25.3 mph N/A   Clear
4:54 PM 10.0 °F -8.1 °F -2.0 °F 58% 30.17 in 10.0 mi SSW 18.4 mph 24.2 mph N/A   Scattered Clouds
5:54 PM 10.0 °F -5.9 °F -2.9 °F 56% 30.14 in 10.0 mi SW 13.8 mph 21.9 mph N/A   Mostly Cloudy
6:54 PM 10.0 °F -2.9 °F -4.0 °F 53% 30.10 in 10.0 mi SSW 9.2 mph 19.6 mph N/A   Scattered Clouds
7:54 PM 10.9 °F -1.8 °F -5.1 °F 49% 30.05 in 10.0 mi SSW 9.2 mph - N/A   Mostly Cloudy
8:54 PM 10.9 °F -4.1 °F -5.1 °F 49% 30.01 in 10.0 mi SSW 12.7 mph - N/A   Overcast
9:54 PM 10.9 °F -1.8 °F -5.1 °F 49% 29.96 in 10.0 mi SSW 9.2 mph - N/A   Mostly Cloudy
10:54 PM 12.0 °F 0.5 °F -5.1 °F 46% 29.91 in 10.0 mi South 8.1 mph - N/A   Partly Cloudy
11:54 PM 12.0 °F 0.5 °F -6.0 °F 44% 29.88 in 10.0 mi SSW 8.1 mph - N/A   Partly Cloudy